Theta_e
331 331 331 330 332 334 335 335 334 334 333 332 332 330 329 325 327 333 335 341 347 343 345 348 346 347 346 345 349 349 349 350 349 349 350 350 350 351 351 352 351 351 352 351 351 352 352 351 351 351 350 350 349 345 343 344 343 344 344 344 345 344 344 344 342 342 343 344 346 345 344 343 342 341 340 340 337 333 330 330 330 330 331 332 332 331
330 329 330 332 333 333 333 334 334 334 333 333 331 328 328 326 327 334 335 338 345 343 343 349 348 348 348 348 349 351 350 349 350 349 351 351 350 351 352 351 352 352 352 351 352 352 352 351 350 350 350 350 350 347 343 343 344 345 345 344 344 343 343 343 342 344 345 345 345 345 343 342 341 341 340 339 335 330 328 328 328 330 330 330 329 327
329 329 331 334 333 332 333 333 333 334 333 332 331 328 325 326 329 335 341 342 342 341 344 350 348 347 350 349 349 352 351 349 349 349 351 351 351 352 353 352 352 352 352 352 352 352 351 351 350 351 351 350 350 348 346 344 344 343 344 343 342 342 343 343 342 344 345 343 343 343 341 340 340 339 337 335 332 329 328 327 327 328 328 328 328 325
325 328 332 333 332 331 331 332 333 332 332 331 330 326 324 327 327 328 338 345 342 342 346 351 349 346 350 350 351 351 351 351 350 349 351 350 351 353 352 353 353 353 353 352 352 353 351 351 351 350 352 351 349 348 347 345 344 342 342 342 342 342 343 343 343 344 344 342 341 341 340 340 338 336 334 333 333 331 330 329 328 328 326 325 326 325
327 329 332 331 330 330 331 331 333 331 329 330 332 327 325 329 327 327 336 345 344 344 346 347 339 337 343 349 351 353 350 351 352 352 352 351 353 353 353 353 353 354 354 352 353 353 351 350 350 350 350 349 348 349 348 346 345 344 342 342 343 343 344 343 343 343 343 342 341 341 339 339 338 336 335 335 334 333 332 331 330 329 326 324 324 323
329 329 330 329 330 331 331 332 331 331 327 327 331 331 328 329 330 334 340 339 336 336 343 343 328 327 336 344 348 352 350 350 353 356 356 353 355 355 354 354 354 355 354 353 354 353 352 350 350 351 350 348 348 349 349 348 347 345 344 343 343 344 345 344 343 342 342 342 340 340 339 338 337 335 332 331 332 332 331 331 331 329 327 325 324 323
328 328 328 328 330 330 330 331 332 330 326 323 328 331 331 331 331 335 338 333 327 329 343 343 328 324 331 337 345 351 351 351 352 356 356 354 355 354 355 355 354 355 355 354 355 353 352 350 351 351 350 349 349 348 348 347 347 346 345 345 344 344 344 343 343 341 341 341 340 338 336 334 333 330 324 323 327 330 330 330 330 329 328 325 324 323
327 326 325 326 329 330 329 328 331 332 326 324 329 331 331 331 332 334 336 331 328 333 339 343 336 327 325 335 349 352 353 355 353 353 353 353 355 354 353 355 355 356 355 354 354 354 352 351 350 350 349 350 348 346 346 346 346 346 344 343 343 343 342 341 341 340 340 339 334 331 328 326 328 327 323 323 326 329 330 329 329 329 328 326 325 324
328 326 326 328 328 328 328 329 331 332 327 327 330 330 330 331 331 333 332 330 332 331 326 334 339 327 323 335 351 353 351 353 355 354 353 353 354 354 353 355 356 356 355 354 354 353 353 351 350 349 348 349 347 345 345 345 345 344 343 343 342 342 341 341 339 337 335 330 325 323 322 322 323 323 325 327 329 330 329 329 329 328 328 326 325 324
326 326 327 327 327 327 328 330 330 329 328 331 331 330 331 333 332 333 332 330 331 328 321 328 335 325 321 329 339 346 348 349 353 355 354 354 354 354 355 353 355 356 354 354 354 353 352 351 350 347 346 346 345 344 344 344 342 342 342 343 342 342 340 337 334 331 328 323 321 322 323 323 321 323 328 330 330 330 329 329 328 327 327 325 324 323
325 326 326 325 327 328 327 328 328 328 329 330 331 331 331 334 335 334 334 332 328 324 323 327 334 328 322 325 329 338 346 346 347 350 353 355 354 353 354 353 354 355 354 354 354 353 351 350 348 345 345 345 344 344 344 343 342 342 342 342 341 340 335 332 331 329 325 323 323 324 323 323 322 325 329 330 329 329 329 328 328 327 326 324 323 322
325 324 324 325 325 325 327 326 328 328 328 329 329 328 326 327 332 329 330 331 324 321 325 329 334 330 322 324 330 340 347 346 343 346 351 354 354 353 353 354 354 354 354 355 354 352 351 350 348 345 345 345 344 344 343 343 342 342 341 341 340 337 333 332 330 327 325 325 326 325 324 323 320 321 326 328 328 328 328 327 327 326 324 323 322 321
324 324 325 325 325 325 324 323 325 327 327 328 326 324 320 320 323 322 323 325 321 321 326 330 331 328 324 329 333 339 345 346 347 351 352 353 354 353 353 355 354 354 354 354 353 352 351 349 346 345 345 345 344 343 343 343 342 341 341 339 337 334 332 331 328 325 326 327 327 324 323 321 319 319 323 327 327 327 327 326 326 325 323 321 321 320
319 323 325 324 324 325 324 322 321 322 325 325 323 320 318 318 319 320 320 321 320 321 326 331 331 326 324 330 335 338 345 351 353 354 353 352 353 353 354 354 354 354 354 353 353 351 349 346 344 344 345 344 344 343 343 343 342 341 339 335 334 333 331 329 327 327 328 327 325 324 323 320 321 323 325 326 326 326 326 325 324 323 321 320 319 319
315 317 323 324 323 324 325 324 323 324 325 326 327 325 320 318 318 318 318 318 319 321 325 329 329 322 323 335 347 348 351 355 355 355 353 352 354 354 353 354 353 354 354 352 352 350 347 346 344 343 343 343 343 343 342 341 341 340 336 333 333 332 329 328 328 327 326 325 324 324 321 319 320 324 326 325 324 325 325 324 322 321 319 319 318 318
315 316 323 325 325 325 325 325 326 325 323 325 328 325 320 322 322 319 318 320 319 319 322 325 325 326 330 341 350 350 351 355 355 356 354 353 353 352 351 353 353 354 354 351 351 349 346 346 345 343 341 341 342 342 342 341 339 336 333 332 332 331 329 328 327 325 325 324 323 322 320 319 321 323 324 324 323 323 323 322 320 319 318 318 317 317
314 316 325 326 324 326 326 326 327 323 321 324 325 321 323 328 326 320 318 321 320 317 320 322 324 327 328 334 343 347 352 356 354 354 355 353 352 350 351 353 353 353 352 350 349 347 346 345 344 343 341 339 341 342 340 338 335 333 332 332 331 330 328 326 326 325 324 323 322 321 318 320 323 324 323 322 322 322 321 320 318 318 317 317 316 315
318 317 324 326 324 326 326 326 328 327 324 323 320 323 327 329 327 323 319 320 319 317 319 320 321 323 321 327 340 350 354 355 352 352 354 352 350 350 352 353 353 353 351 350 349 346 345 344 344 343 340 339 341 342 339 336 334 332 331 330 330 329 327 326 326 325 323 322 321 320 319 320 321 320 319 319 319 319 319 318 317 317 316 315 315 312
322 316 321 327 325 326 327 325 324 326 327 324 323 327 326 321 320 321 319 318 318 318 318 319 321 321 319 323 332 346 356 356 351 350 351 351 351 351 352 353 352 351 350 350 348 345 345 345 344 343 341 340 340 340 338 336 334 332 330 330 329 328 327 326 325 323 323 322 320 319 319 318 316 314 315 317 317 318 318 317 316 316 315 314 313 309
324 317 318 325 326 325 326 324 320 322 327 326 325 329 327 324 321 320 321 320 318 317 318 319 320 320 327 335 340 351 360 357 351 350 349 350 351 351 352 352 351 350 351 350 347 345 345 345 343 342 341 341 339 339 338 335 333 330 330 330 329 328 326 325 323 323 322 321 319 317 316 314 312 312 315 318 318 317 317 316 315 315 313 311 311 309
325 321 317 321 326 323 322 324 322 322 325 323 322 322 323 325 324 323 323 320 319 318 317 319 318 320 337 353 354 356 358 353 350 351 350 350 351 351 351 350 350 350 351 349 346 345 345 344 342 342 341 340 339 338 336 333 331 330 330 330 328 327 325 324 324 323 322 320 318 316 314 313 312 311 314 317 317 316 316 315 315 314 313 311 310 310
324 323 318 318 321 319 322 327 326 326 327 325 323 321 322 324 322 319 320 320 321 319 318 319 316 323 344 356 355 355 354 352 353 351 350 350 350 350 350 350 349 350 349 347 345 345 345 344 342 341 340 339 338 337 335 332 331 331 331 329 327 326 326 325 326 324 321 320 317 316 314 313 313 312 313 316 317 316 315 314 314 313 314 314 311 309
325 325 320 318 320 323 325 327 326 325 327 326 326 325 326 326 321 317 316 318 320 318 321 320 316 328 351 355 353 355 353 352 352 350 350 350 349 350 349 348 349 349 348 345 344 344 344 343 342 340 340 339 337 336 334 332 331 331 330 328 326 327 327 326 326 323 320 319 318 317 316 314 315 315 315 315 315 315 315 314 314 314 313 314 311 308
326 325 320 318 322 326 326 327 327 326 325 325 325 327 327 326 325 323 321 322 320 317 321 320 316 331 352 355 354 355 352 352 351 350 350 349 349 349 348 347 347 347 346 344 344 344 343 343 341 340 339 338 336 336 334 331 332 331 328 327 327 327 327 325 324 322 320 319 319 318 317 315 316 317 316 315 314 314 314 314 314 314 314 313 312 308
322 323 321 317 318 320 321 322 323 324 324 324 325 327 327 327 328 326 325 325 321 317 321 318 316 335 351 353 354 353 350 352 350 349 349 348 348 348 346 346 345 344 344 344 343 343 342 341 340 339 339 338 337 335 333 332 332 330 327 328 328 327 326 324 323 322 321 320 319 318 317 316 316 316 316 315 314 314 315 315 314 314 314 314 314 312
323 325 325 318 315 316 317 319 320 323 324 323 326 327 328 327 327 325 323 320 318 321 326 318 319 340 354 353 351 351 349 350 350 349 347 347 346 346 346 345 344 344 344 344 343 342 341 340 339 339 338 338 337 334 332 332 331 328 327 328 328 326 325 324 323 322 320 319 319 318 317 317 316 317 316 315 315 314 315 315 314 314 314 315 315 315
327 328 326 322 319 319 321 324 326 327 325 322 325 329 331 329 329 327 321 319 320 324 326 324 329 344 352 353 351 351 349 349 350 349 347 346 346 344 345 344 344 345 344 342 342 341 340 340 339 338 337 337 336 333 332 331 329 328 328 328 327 326 324 323 322 321 320 319 319 319 318 318 317 317 316 316 315 315 315 315 314 314 315 315 315 316
327 324 325 327 324 325 329 330 330 329 328 328 329 332 333 333 331 328 322 324 328 321 322 335 344 343 349 355 352 350 350 349 350 349 346 346 345 344 345 344 344 344 343 342 342 340 339 338 338 338 337 336 335 333 332 331 328 327 327 327 326 325 324 322 322 321 320 319 319 319 318 317 317 316 316 316 315 315 315 315 314 315 315 315 316 316
327 323 325 326 325 329 335 334 331 331 334 336 335 334 335 333 331 328 328 333 336 326 326 343 352 348 353 355 350 350 351 350 350 349 346 345 345 344 344 344 343 342 342 341 341 340 339 338 338 337 336 336 334 333 333 332 328 326 327 327 326 324 323 322 321 320 319 319 319 319 318 318 317 316 316 316 315 315 315 315 315 316 316 316 316 316
326 326 328 326 327 333 338 337 334 333 334 336 337 337 337 334 331 333 335 338 339 336 338 348 351 352 354 352 350 351 351 350 350 347 346 345 344 344 344 344 343 342 341 340 340 340 339 338 338 336 336 336 335 333 333 331 328 327 327 327 325 323 322 321 320 320 319 319 319 319 319 318 317 317 316 316 316 315 316 316 316 316 316 316 317 316
326 328 332 330 327 329 336 337 336 335 335 333 336 338 338 337 336 337 340 341 339 341 348 350 350 352 353 351 352 351 349 351 350 347 346 345 344 344 344 343 342 341 340 340 339 339 338 337 336 335 336 336 334 333 333 330 328 328 327 326 324 322 321 321 320 319 319 320 319 319 319 318 318 317 317 316 316 316 316 316 316 316 316 317 317 317
328 330 336 333 324 323 333 336 333 337 335 331 334 339 340 338 338 338 342 343 342 342 343 341 343 350 352 351 351 349 349 351 349 347 347 344 343 344 343 342 341 340 340 339 339 339 337 336 335 335 336 335 333 333 331 328 327 327 326 325 323 322 321 321 320 319 319 320 320 320 319 319 319 318 317 317 317 316 316 316 317 317 317 317 317 318
331 330 332 329 320 320 330 334 332 332 326 323 332 341 343 343 341 342 344 345 345 345 341 338 343 351 352 349 348 348 349 350 350 348 346 344 343 343 343 342 340 339 339 339 339 338 336 336 336 335 335 334 333 333 329 326 326 326 324 324 323 321 321 320 320 320 320 320 320 320 320 319 319 319 318 318 317 316 316 317 317 317 317 318 317 317
335 331 329 328 321 320 329 334 331 324 319 325 338 345 345 345 343 343 344 343 345 346 346 349 352 352 350 349 348 349 350 351 350 348 346 345 343 342 342 341 340 339 339 338 338 338 337 336 335 335 334 334 332 330 328 326 326 325 323 323 321 321 321 320 320 320 320 320 320 320 320 319 319 319 318 318 318 317 318 318 318 317 318 318 318 317
335 331 328 329 325 323 328 329 321 317 323 336 345 345 344 345 343 344 346 346 346 347 348 353 352 350 351 352 351 350 351 351 350 348 347 345 343 343 342 341 340 339 338 338 338 337 336 335 335 334 333 332 330 328 327 326 325 324 323 322 321 321 321 320 320 320 320 320 320 320 320 320 319 319 318 317 317 318 318 317 317 318 318 318 318 318
334 331 329 330 330 327 324 321 318 322 334 345 346 344 344 344 343 341 341 344 347 347 350 353 352 352 354 352 351 351 350 350 349 348 347 345 343 343 342 341 340 338 338 338 337 335 335 335 334 333 331 329 328 327 326 326 324 323 323 322 321 321 320 319 319 320 320 320 320 320 320 319 319 319 318 317 317 318 318 317 317 317 317 317 318 318
334 333 330 327 329 327 320 319 324 329 332 338 343 344 343 342 343 339 336 343 348 348 351 352 351 351 352 350 350 350 349 349 349 347 346 345 344 343 342 341 339 338 338 337 335 335 334 333 333 332 330 328 327 327 326 324 323 323 323 322 321 321 320 319 319 318 318 319 321 321 320 320 319 319 318 318 318 318 318 317 317 317 317 317 318 318
334 337 333 325 327 329 323 321 324 322 324 333 342 345 344 342 344 341 336 340 348 349 351 353 351 351 352 350 350 350 349 350 349 347 346 345 344 343 341 340 339 338 337 336 335 334 333 332 332 330 328 326 326 325 324 322 322 323 322 322 321 320 319 318 318 317 318 319 320 320 320 319 319 318 318 318 319 318 318 318 318 318 316 315 316 317
333 338 337 329 326 327 322 320 321 321 327 340 345 345 345 341 342 339 332 335 347 352 352 353 352 352 352 351 350 351 350 350 349 348 346 345 344 342 341 340 339 338 337 336 335 333 332 332 331 328 326 325 324 323 321 321 322 323 323 322 321 320 319 318 318 317 317 318 318 318 318 318 318 318 318 319 318 318 318 318 318 317 315 315 317 317
333 334 333 325 323 325 323 320 320 324 334 345 345 343 343 342 342 336 328 333 350 355 351 352 354 352 352 351 350 351 351 349 349 348 345 344 343 342 341 340 339 338 337 336 334 333 332 331 329 327 325 324 323 321 319 321 322 322 322 322 321 320 320 319 318 318 317 317 318 318 318 318 318 318 318 319 319 319 319 318 318 317 317 317 318 318
333 333 331 326 323 323 323 320 320 326 338 344 344 343 343 341 338 332 330 341 353 353 351 353 353 352 353 351 351 351 351 350 349 347 345 344 343 342 342 340 339 338 336 335 334 332 332 330 328 325 324 323 321 320 320 322 322 321 321 321 321 321 320 319 318 318 318 318 318 318 318 319 318 318 318 319 319 319 319 318 318 318 318 318 318 318
331 331 330 328 325 325 325 322 320 328 341 346 344 344 343 338 334 334 340 349 353 352 353 353 352 353 353 351 351 351 350 349 348 346 345 344 343 343 342 340 338 337 335 334 332 331 331 329 326 324 323 321 320 320 321 322 321 320 320 320 320 321 320 319 319 319 318 319 319 319 319 319 319 319 319 319 319 319 318 318 318 319 318 318 318 318
333 329 326 327 327 326 326 323 321 328 342 346 343 343 343 340 339 344 348 350 351 352 353 352 353 354 352 350 350 349 348 347 345 344 344 343 343 342 341 338 337 336 335 333 332 331 330 326 324 322 322 320 320 320 321 321 320 319 319 320 320 319 318 319 319 318 319 319 319 319 319 318 318 319 319 319 318 319 319 319 319 319 318 318 318 318
339 334 328 330 332 327 324 327 330 337 345 345 342 345 346 344 346 350 350 349 350 352 352 352 353 352 350 349 348 346 346 345 344 344 344 343 342 341 339 338 337 336 335 334 332 330 328 325 323 322 321 320 320 321 321 321 320 319 320 320 319 318 318 319 318 318 319 319 318 318 318 318 318 319 319 319 319 319 319 319 319 319 319 318 318 318
342 342 337 338 340 336 334 339 344 346 346 343 344 348 347 346 347 349 349 349 351 352 352 353 352 350 349 348 347 346 345 344 343 343 343 342 341 340 338 338 337 336 334 333 331 329 326 323 322 321 321 321 321 321 321 321 319 319 320 320 318 318 318 319 319 319 319 320 320 319 319 318 318 319 319 319 319 319 319 319 319 319 319 319 318 318
344 344 343 344 345 344 344 345 345 346 346 344 345 347 347 347 348 348 349 351 352 352 352 352 351 350 348 347 346 346 344 342 342 342 341 341 340 339 338 337 336 335 334 333 330 328 324 323 322 322 321 322 321 321 322 321 319 319 320 319 318 319 319 319 320 320 320 320 320 320 320 319 319 319 319 319 320 320 320 320 320 320 319 319 319 319
344 342 343 346 345 343 344 346 346 346 347 346 345 347 347 348 349 350 351 351 351 352 351 350 349 348 347 347 346 345 343 342 342 341 340 340 339 338 337 336 336 335 333 332 329 326 323 322 322 321 322 322 322 321 322 322 320 319 319 319 319 319 320 320 321 320 321 321 321 320 321 321 320 320 321 320 320 320 320 320 320 320 320 320 319 320
345 344 343 342 343 345 346 347 346 345 346 346 347 347 347 348 350 350 350 350 350 350 350 349 348 347 347 347 346 345 343 342 341 341 340 339 338 337 336 336 335 334 332 330 327 324 323 322 321 321 322 322 322 322 322 322 321 320 319 318 319 319 320 320 321 320 320 321 320 320 321 321 320 320 321 321 321 321 320 321 321 320 320 320 319 319
344 344 342 342 343 345 344 345 344 344 344 344 346 348 349 349 349 349 348 348 348 348 348 348 348 347 347 346 345 344 342 341 340 340 339 338 337 337 336 335 334 333 331 329 326 323 323 322 321 321 322 322 322 322 322 321 321 322 320 318 319 319 319 320 321 321 320 320 320 320 320 320 320 321 321 321 322 321 320 319 319 319 320 319 316 315
343 343 341 342 341 341 342 344 344 344 343 341 343 346 348 348 348 347 347 347 347 348 347 347 347 346 346 345 344 344 342 340 340 339 338 338 337 336 335 335 333 331 330 327 324 323 323 322 321 322 323 322 321 321 321 320 320 320 321 320 320 320 319 320 321 321 321 321 320 320 321 321 321 321 322 321 321 321 320 318 316 315 316 316 313 312
345 344 342 341 341 341 342 343 344 345 344 342 343 346 347 347 345 345 346 346 346 347 346 346 346 346 345 344 343 343 342 340 339 338 338 338 336 336 335 333 332 331 328 325 323 323 322 323 323 323 323 322 321 320 320 320 319 319 321 321 321 320 319 320 321 321 321 321 321 320 320 320 321 322 322 322 321 321 321 320 318 315 313 313 312 312
Wind_Speed
8 8 7 8 8 8 7 8 8 5 5 7 7 7 7 7 3 3 4 5 11 9 9 12 12 10 9 10 13 17 17 17 16 15 15 15 16 16 15 13 12 11 10 10 10 10 9 9 10 9 8 9 6 2 3 5 6 6 7 7 8 9 9 7 8 8 6 5 5 4 4 4 4 5 5 6 6 7 7 7 7 7 8 9 10 12
7 9 9 11 9 6 6 8 8 6 6 7 7 7 6 6 4 4 3 3 8 8 7 9 11 11 10 9 12 17 17 17 18 17 17 17 16 16 17 15 13 12 11 11 11 11 10 9 10 9 8 9 10 6 4 6 7 7 7 7 8 10 9 8 9 8 5 4 3 3 3 3 3 4 4 4 5 7 7 6 7 7 8 9 10 12
8 10 13 12 6 4 6 7 8 8 8 7 6 7 6 5 4 3 2 2 6 6 4 5 9 10 9 10 12 16 17 17 19 19 18 18 17 17 17 17 16 15 13 13 12 11 10 10 10 10 8 8 10 11 8 8 9 9 8 9 10 10 9 9 9 7 5 3 3 3 2 3 2 2 3 4 5 5 5 6 7 7 8 9 10 12
9 8 12 10 4 6 9 7 8 8 8 7 7 7 6 5 5 1 3 4 5 4 3 3 6 7 7 9 11 16 19 17 18 20 18 18 17 17 17 18 19 19 17 14 13 12 11 11 10 10 9 8 9 11 11 10 12 12 10 10 10 10 10 10 9 7 6 3 2 2 2 2 2 4 5 5 5 5 5 6 6 7 9 10 9 11
10 2 2 3 6 10 11 9 9 8 7 8 9 8 8 7 6 4 2 4 5 6 5 5 6 5 5 8 10 14 17 17 17 19 19 18 17 16 16 17 19 21 20 17 15 15 13 12 11 10 9 7 7 8 9 10 12 13 11 10 10 10 10 10 9 7 5 4 1 1 2 2 3 4 4 3 3 4 4 5 6 7 9 10 10 10
11 2 3 2 5 8 11 9 10 9 7 9 9 7 7 8 6 2 2 3 5 5 6 7 6 2 2 6 10 10 13 16 17 18 20 20 18 16 17 18 19 20 21 19 17 16 14 13 12 11 9 7 6 6 7 8 8 10 11 10 9 10 10 9 8 6 5 3 1 1 1 1 2 2 2 1 1 3 4 4 5 6 8 9 10 11
6 4 5 7 6 7 9 8 9 8 8 8 5 3 5 7 6 3 4 6 5 1 4 7 6 3 1 4 8 9 12 14 15 18 20 21 20 19 18 19 20 21 21 20 19 17 15 14 13 11 9 8 7 6 6 6 6 7 9 9 10 10 9 8 7 6 5 2 1 1 0 1 2 2 3 3 2 2 4 4 5 6 7 8 9 11
6 7 8 10 10 10 9 9 9 8 10 6 2 2 5 5 6 5 6 7 4 2 4 7 5 6 4 2 4 8 10 12 14 17 19 21 22 21 19 19 21 23 22 21 20 18 18 16 14 13 11 8 8 8 7 7 7 8 9 10 10 9 9 8 6 5 4 2 0 1 0 2 3 2 4 6 4 3 3 4 5 6 6 8 9 10
8 11 11 12 12 10 9 12 10 8 11 6 3 2 5 6 7 7 7 6 3 4 4 5 5 6 5 2 5 8 9 11 14 16 18 21 22 21 20 20 22 22 22 21 20 20 20 19 16 15 14 12 11 10 9 9 9 9 9 9 9 9 9 8 7 5 4 2 2 2 3 4 5 5 5 5 4 3 4 4 5 5 6 7 9 10
5 5 7 10 11 9 11 12 9 9 10 4 2 3 4 5 7 6 7 6 3 5 8 4 7 6 6 3 4 4 4 7 11 12 14 19 20 20 20 21 22 22 21 21 22 21 20 20 19 18 17 15 14 12 10 9 10 9 10 9 9 10 9 9 8 6 5 4 4 4 5 5 6 6 5 4 4 4 4 4 5 5 6 7 8 9
2 3 1 7 9 8 9 8 7 10 8 2 4 7 6 5 5 4 5 4 4 6 7 4 6 8 7 4 4 1 1 4 4 4 7 11 15 17 20 22 23 23 23 23 23 22 20 20 21 21 19 17 15 13 11 10 10 10 10 10 10 9 9 9 8 6 5 4 3 4 5 6 6 6 4 4 4 4 5 4 5 5 6 7 8 9
9 7 5 8 10 9 8 7 6 7 7 6 7 8 7 5 4 4 3 2 6 7 2 2 5 9 7 6 5 2 3 3 2 1 2 5 11 16 19 22 24 24 24 24 24 23 21 18 19 20 18 16 16 14 12 12 11 11 10 10 10 9 8 7 6 5 3 1 1 3 4 6 7 5 4 4 4 4 5 5 5 5 6 7 8 9
11 11 10 10 11 12 10 9 8 8 7 8 9 8 8 7 6 7 7 5 8 7 2 1 5 7 7 7 7 5 3 3 1 6 11 11 13 18 20 23 25 25 26 26 25 23 21 19 19 17 14 16 16 14 13 13 11 11 10 9 9 8 7 6 5 4 2 1 2 3 5 7 7 6 5 5 5 5 5 5 5 6 7 8 8 10
8 11 13 11 10 13 13 10 8 9 9 10 10 9 9 8 8 9 9 7 8 6 2 2 4 6 8 6 7 8 3 2 7 12 15 14 16 19 21 25 25 25 28 27 25 24 22 21 22 19 15 16 16 14 14 13 11 11 10 10 8 7 7 5 4 4 3 3 4 5 6 7 7 6 5 4 4 5 5 5 5 6 7 8 9 10
8 7 9 11 8 12 16 14 12 10 9 11 11 10 10 9 9 9 8 7 8 6 3 3 3 6 6 1 0 3 2 7 11 14 15 16 18 20 22 24 25 26 26 24 24 24 21 20 22 21 18 16 16 15 14 13 12 12 11 10 8 7 7 5 5 6 6 6 6 6 7 7 6 5 5 4 4 4 4 4 5 6 7 8 9 11
9 6 5 7 4 8 14 15 15 13 9 9 10 11 11 10 9 8 8 7 7 7 4 4 5 6 5 1 2 4 2 9 14 16 17 19 20 21 22 23 23 23 22 21 22 21 17 17 20 21 18 18 18 17 16 14 13 13 13 10 8 7 7 6 7 9 7 6 6 7 7 8 7 6 5 5 6 5 4 4 5 6 7 8 9 11
8 6 5 7 5 9 12 11 14 14 10 6 8 10 8 8 9 9 8 6 6 9 7 5 6 7 7 4 5 7 4 12 16 17 19 19 19 20 21 22 22 21 20 22 23 20 18 19 22 21 19 20 22 20 17 16 15 13 12 10 9 8 8 8 9 8 7 7 7 8 8 8 7 6 5 4 5 4 4 4 5 6 7 8 10 11
6 5 5 8 8 10 8 7 9 13 12 7 6 8 7 5 7 7 7 6 7 9 7 6 8 8 8 4 3 5 7 14 14 15 18 17 17 19 20 22 22 22 22 24 25 25 25 26 25 23 21 22 23 22 20 18 15 12 11 10 9 8 9 9 8 7 7 6 7 8 8 6 4 3 3 4 3 3 4 5 6 6 8 9 11 11
5 7 4 8 7 5 6 7 8 10 13 11 7 6 6 6 8 7 7 8 9 9 7 7 9 9 8 5 3 2 9 16 13 13 15 14 17 18 20 23 23 23 24 24 25 25 25 26 25 24 23 23 23 23 20 16 14 14 13 11 9 9 10 9 8 7 6 5 6 6 5 4 4 4 5 5 4 5 6 6 6 7 8 9 10 11
4 7 3 5 4 3 5 7 8 8 11 11 10 7 6 6 7 6 6 8 9 8 8 8 8 6 4 4 5 7 11 14 12 12 13 14 18 19 21 24 23 24 25 22 20 21 23 24 22 20 23 24 24 22 18 16 17 17 14 11 10 10 10 9 8 6 4 5 5 5 4 5 6 6 7 7 6 7 7 7 7 8 9 11 11 12
5 6 5 4 6 4 5 6 9 8 8 10 10 9 8 5 4 5 6 7 7 8 8 7 8 4 4 6 6 9 11 11 13 13 13 16 20 20 21 23 23 24 24 19 18 21 23 23 20 18 21 23 22 20 17 18 20 17 13 11 11 11 10 9 7 5 4 4 5 5 6 7 8 8 8 8 7 7 7 7 8 9 10 12 13 12
5 5 7 4 5 6 4 5 6 8 6 7 9 10 10 7 6 6 7 7 6 8 8 8 9 2 4 5 6 9 10 12 14 15 17 19 21 21 21 21 21 22 21 18 19 22 23 23 20 20 23 24 22 21 20 20 19 15 12 12 12 11 10 9 7 5 4 4 5 6 7 9 9 9 9 9 8 8 8 9 10 11 11 11 13 12
7 5 6 7 7 7 2 4 3 7 8 8 8 9 10 10 9 8 8 7 7 8 6 8 8 2 6 5 6 10 11 13 16 18 19 20 21 21 20 19 19 20 20 18 19 21 21 21 20 21 25 25 22 21 21 20 17 14 13 13 13 12 10 8 7 6 5 6 7 8 9 9 9 9 9 10 9 9 9 10 11 13 14 14 13 12
6 5 7 7 7 8 4 3 4 4 6 9 9 8 9 9 8 8 7 5 5 8 6 7 8 1 6 4 7 12 14 15 16 18 21 21 21 20 21 21 20 19 19 18 19 21 21 21 20 22 25 24 21 21 21 19 16 14 14 14 12 11 10 9 7 6 7 8 9 8 9 9 9 10 10 10 11 10 10 10 11 12 14 16 16 16
7 5 7 6 5 7 6 5 6 5 7 8 8 9 10 11 10 8 7 5 6 10 9 9 8 2 5 4 8 12 14 15 16 18 21 21 21 21 22 22 20 20 20 19 19 21 22 21 20 22 24 22 20 21 21 18 16 16 16 14 11 10 10 9 8 7 9 9 9 9 9 10 10 10 10 10 11 11 11 11 11 12 12 13 16 17
7 4 5 6 6 6 4 3 2 3 7 9 9 10 11 13 13 9 6 7 8 7 7 9 6 4 7 7 10 11 12 14 16 19 21 21 22 22 21 20 21 21 20 19 20 22 22 21 20 22 22 21 21 23 22 19 17 18 17 13 11 11 10 8 8 9 9 8 8 9 9 10 10 9 9 9 9 10 11 11 11 11 10 11 14 15
5 4 6 8 8 4 2 3 3 2 5 7 8 9 9 12 13 10 9 8 6 4 5 7 4 6 10 9 10 10 11 13 15 18 21 21 21 21 20 21 22 21 20 20 21 20 21 21 21 21 21 22 24 22 20 19 19 18 17 14 12 12 11 9 9 9 9 8 8 8 8 8 8 8 8 8 8 9 10 10 10 10 9 10 12 12
3 5 8 10 10 5 4 3 1 3 4 3 4 6 6 8 10 11 8 3 3 6 4 3 4 3 9 10 10 10 11 12 14 18 20 20 20 21 21 22 22 21 20 20 20 20 21 22 21 19 19 23 24 20 17 19 19 18 17 14 12 12 11 10 9 9 9 8 8 8 7 7 7 7 7 7 8 8 8 9 9 9 9 9 10 11
4 5 6 7 9 4 2 3 2 3 3 2 2 3 3 6 8 9 6 1 2 5 1 4 4 5 9 10 10 10 12 13 15 18 19 20 20 21 22 21 22 23 22 20 21 20 21 21 20 18 19 20 20 19 18 19 19 17 15 14 13 11 10 10 10 9 9 9 9 8 7 7 6 6 6 6 7 8 8 8 8 8 8 8 8 8
4 2 4 6 7 4 2 3 4 5 5 4 3 2 3 5 7 6 3 1 1 2 4 6 8 10 9 9 10 11 13 16 18 19 19 20 20 21 22 21 22 24 22 21 22 21 19 21 20 19 19 19 19 20 21 20 19 17 15 13 13 11 10 11 10 10 10 9 9 8 8 7 7 6 6 6 7 7 7 7 7 7 7 7 6 6
4 2 4 6 6 4 2 2 3 6 5 4 4 4 5 6 6 5 4 3 2 3 4 6 9 9 7 9 13 13 15 18 19 19 20 20 21 22 22 22 22 22 22 21 21 20 19 21 20 19 19 20 20 22 22 20 17 15 14 13 12 11 11 11 10 10 10 10 9 8 8 7 6 6 6 5 5 6 6 6 6 6 6 5 5 5
4 3 4 6 6 3 3 2 3 4 4 3 3 3 4 4 4 4 3 2 1 2 3 4 4 6 7 11 14 14 15 17 18 19 20 21 22 22 22 22 21 21 21 20 20 19 20 22 21 19 19 20 21 21 22 20 17 15 15 13 11 12 11 11 11 10 10 10 9 9 8 7 6 6 5 4 4 5 5 5 5 4 4 4 4 4
5 4 4 5 5 3 3 2 3 4 4 3 2 2 2 3 4 4 4 4 3 3 2 1 3 8 11 12 13 13 14 16 17 18 19 21 22 21 21 22 21 20 20 19 19 20 21 21 20 19 19 19 20 20 21 21 18 16 15 14 13 12 11 11 11 10 11 10 9 8 8 7 6 5 5 4 3 3 3 3 3 3 3 2 3 4
4 4 2 4 5 4 4 3 3 4 4 2 2 1 0 2 3 3 4 6 4 4 5 6 9 11 12 11 11 12 13 14 16 17 19 21 23 22 21 21 21 21 20 19 20 21 20 19 20 20 19 18 19 21 20 18 17 16 15 14 13 12 11 10 10 10 10 10 9 8 7 7 6 5 4 4 3 3 3 2 2 1 1 2 3 4
4 5 3 5 6 2 3 4 5 4 2 2 4 3 2 2 2 4 6 6 5 6 9 10 11 12 11 11 12 14 14 15 15 17 18 20 21 22 23 23 22 22 21 21 22 22 20 20 21 20 20 20 21 21 19 17 16 16 16 14 13 12 11 10 10 10 9 9 9 9 8 7 6 5 4 4 4 4 4 3 3 2 0 1 2 3
3 4 4 5 4 1 4 5 4 2 2 5 5 4 5 4 4 5 5 5 6 6 8 10 11 11 12 13 14 15 16 17 16 16 17 18 19 21 23 23 22 22 22 22 23 23 22 22 22 22 24 24 22 20 19 18 18 17 16 14 13 11 10 10 9 9 9 9 9 9 9 8 7 5 4 4 4 4 4 3 2 1 1 1 2 3
5 2 4 3 3 4 5 4 3 2 5 6 6 6 6 5 5 4 2 4 7 6 9 12 12 12 13 15 16 17 19 18 14 13 16 17 18 19 20 20 21 22 22 23 24 24 24 24 24 25 25 23 21 19 19 19 18 17 15 13 12 11 10 9 8 8 8 9 9 9 9 9 7 6 5 4 4 4 3 2 2 1 1 1 2 3
4 3 3 3 3 5 5 4 4 4 4 3 3 6 6 3 4 3 3 4 8 9 11 14 13 14 16 17 19 20 18 12 8 10 15 17 18 19 18 19 22 23 23 25 28 27 25 24 25 26 24 22 21 20 20 19 18 16 14 13 12 12 10 9 9 8 9 9 9 8 9 9 8 7 5 5 4 4 3 3 2 2 1 1 1 3
4 3 4 5 6 5 4 5 6 3 2 2 2 7 7 5 5 4 4 4 7 11 14 15 15 16 18 19 21 19 13 6 5 11 17 18 19 20 19 21 24 23 23 26 29 26 23 23 25 25 23 22 21 20 20 18 16 15 14 13 12 12 11 10 10 9 9 10 10 9 9 9 9 8 7 6 5 4 4 3 2 2 2 1 2 4
5 5 5 7 7 5 4 5 5 2 0 1 3 7 8 5 5 5 4 2 7 13 15 16 17 19 19 20 20 15 7 3 6 15 19 19 20 20 20 23 24 23 24 27 26 23 23 24 25 23 22 21 21 20 19 17 15 14 13 13 12 12 12 11 11 10 10 10 9 9 9 8 9 9 7 7 6 5 4 3 3 2 3 3 4 5
5 4 5 7 7 5 4 5 6 2 2 2 5 8 8 5 4 5 3 1 8 13 14 15 17 19 19 20 17 9 1 4 13 21 22 21 22 21 20 21 22 23 26 28 25 23 24 25 23 22 21 21 21 20 18 16 14 13 13 13 12 12 12 12 11 10 10 10 9 9 8 8 8 8 8 7 6 5 4 4 3 3 4 5 6 7
4 4 5 6 7 4 3 6 8 3 2 2 5 7 5 4 3 1 1 2 7 12 12 13 16 17 18 17 12 7 10 15 20 23 23 23 24 22 20 21 22 24 27 27 25 24 24 23 22 21 20 20 20 19 17 15 14 14 13 13 12 11 12 12 11 11 11 10 10 9 9 9 9 8 7 7 6 5 4 4 5 5 6 6 7 7
1 3 5 4 3 4 6 8 8 3 2 4 6 6 3 2 1 3 4 5 8 11 12 12 14 16 16 14 11 13 18 19 21 23 23 23 23 21 21 23 25 26 27 26 25 24 23 22 22 21 20 20 19 18 16 15 14 14 14 13 12 12 12 12 11 11 10 10 9 9 9 9 9 8 7 6 6 5 4 5 6 6 6 7 7 7
0 2 3 2 2 6 7 4 2 1 3 5 4 2 2 2 3 2 4 7 9 11 11 12 13 13 13 14 15 17 19 20 21 23 23 22 22 21 22 24 25 26 25 25 25 23 22 22 22 21 20 19 18 17 16 15 15 15 14 13 13 14 13 12 11 10 10 9 9 9 9 8 8 7 7 6 6 5 5 6 7 7 7 7 8 8
2 2 2 1 1 2 2 3 3 2 4 4 3 4 4 4 3 2 4 9 11 11 11 12 13 14 15 17 19 19 19 20 22 22 21 21 21 22 22 23 24 25 25 25 25 23 21 21 22 21 20 19 18 17 16 15 15 15 15 14 14 14 13 12 11 9 9 8 8 8 8 7 7 7 7 7 6 6 7 7 8 8 9 9 9 9
3 1 2 2 1 1 2 4 3 3 5 4 5 6 5 5 4 4 6 10 12 12 12 13 15 16 18 19 19 19 19 20 21 21 20 20 21 22 22 23 24 25 26 25 24 23 21 21 22 21 20 19 18 17 16 15 15 15 15 14 14 14 12 11 10 9 8 8 7 7 7 7 7 7 7 7 7 7 8 8 8 9 9 8 8 8
2 1 2 1 1 1 1 3 3 5 5 5 6 7 7 7 7 7 9 12 13 13 13 14 16 17 17 17 17 19 19 19 19 20 20 20 21 22 22 24 26 26 25 24 23 22 21 21 22 21 20 19 18 17 15 14 14 15 15 14 14 12 12 11 10 8 8 7 7 7 6 7 7 6 7 7 6 6 7 7 7 7 7 6 7 7
1 2 2 1 1 1 2 4 5 6 7 5 5 7 8 9 11 11 13 14 14 14 14 15 16 16 15 14 16 19 19 17 18 19 20 20 21 22 22 24 26 26 24 23 23 22 21 21 21 21 20 19 18 16 15 15 14 14 14 14 13 12 11 11 9 8 7 6 6 6 6 6 6 5 6 5 4 4 5 5 5 6 6 5 5 5
1 1 0 1 2 3 4 5 7 8 7 6 6 8 10 11 14 14 14 15 15 15 16 15 14 13 14 15 16 18 17 16 17 19 19 20 21 22 23 24 25 24 23 23 22 21 21 21 21 20 19 18 17 16 15 15 14 13 14 14 13 12 12 11 9 8 7 7 6 6 5 5 5 5 5 4 3 3 3 3 3 4 4 4 3 3
2 2 2 3 2 1 3 7 7 4 5 7 9 10 11 12 14 15 14 14 15 16 16 15 13 12 13 14 14 15 17 18 18 18 19 20 21 23 25 25 24 23 23 22 22 21 20 20 20 19 18 17 17 16 15 15 15 14 13 13 13 13 13 11 10 9 8 8 7 6 5 5 5 5 5 3 2 3 4 4 3 2 2 2 3 2
2 1 2 2 1 0 4 9 7 2 5 10 11 11 11 12 13 14 13 13 15 15 15 16 15 14 13 12 11 13 17 18 18 18 19 20 22 24 25 24 23 22 22 22 21 20 20 19 19 18 16 16 16 16 15 15 14 14 13 13 13 14 13 12 10 10 9 8 8 8 7 6 5 5 4 3 3 3 3 3 3 3 2 2 2 2
Wind_Direction
216 229 225 233 233 227 224 242 272 313 316 302 299 291 300 310 334 26 11 157 185 216 217 221 234 235 223 196 183 187 192 200 209 209 200 195 188 181 180 178 174 173 164 158 159 157 159 161 159 164 159 149 157 167 132 142 146 140 144 148 150 152 149 143 127 114 116 116 106 97 85 71 55 45 32 20 5 357 1 -0 352 344 337 332 331 331
213 240 237 236 242 239 236 251 266 276 278 281 285 290 294 303 347 43 21 158 187 226 228 219 234 237 230 214 190 186 193 203 207 209 206 201 195 185 178 172 168 164 160 157 157 157 162 164 161 162 161 152 152 154 138 139 143 143 150 153 158 159 156 150 130 118 127 126 114 111 97 88 64 50 42 13 353 355 1 357 347 339 336 335 335 336
221 240 242 240 242 244 250 262 265 261 271 277 273 280 287 303 342 67 91 148 180 226 241 217 238 243 230 219 201 191 197 206 209 210 209 205 200 190 180 171 165 161 161 161 159 162 166 167 164 159 161 158 151 150 151 152 151 155 159 158 161 163 162 158 140 130 141 136 127 128 94 86 67 6 353 354 354 4 7 351 342 340 340 343 347 347
227 238 246 238 213 235 244 242 249 253 256 260 262 272 282 299 321 14 120 151 184 225 272 262 258 257 234 216 207 202 204 207 210 214 213 210 205 196 186 174 166 161 161 163 162 165 170 168 165 160 159 163 152 148 153 153 153 156 160 161 163 160 164 168 158 151 152 129 99 80 29 42 17 351 4 16 11 13 10 358 351 348 346 348 355 355
237 255 317 236 213 237 247 232 234 250 252 254 257 268 284 305 327 339 69 138 189 213 230 259 264 252 238 228 216 203 204 208 208 211 214 211 206 199 190 178 169 162 160 163 166 168 171 170 166 160 158 161 152 145 144 143 148 154 155 162 162 153 163 175 173 165 145 117 74 24 12 16 21 26 39 35 17 9 5 6 357 352 352 351 355 357
238 178 96 223 213 226 243 236 236 250 256 256 257 271 295 313 324 321 162 184 223 215 204 236 260 241 196 243 236 200 195 206 204 206 211 205 199 195 189 179 171 164 159 161 168 170 169 169 164 155 153 152 145 140 133 131 140 146 148 155 154 145 153 167 167 154 124 109 110 89 78 58 65 64 49 11 25 11 356 2 358 354 356 354 356 356
235 174 194 232 218 217 235 240 238 245 257 255 253 286 306 309 299 255 227 248 276 346 174 218 259 276 177 229 231 195 190 204 204 209 212 204 197 192 186 178 169 165 161 161 167 168 167 168 161 149 148 147 143 141 134 131 127 127 133 139 138 135 139 145 141 128 118 130 172 146 134 101 100 64 5 359 17 18 -0 358 358 352 351 353 356 353
213 200 214 227 228 228 233 240 231 230 254 260 84 336 291 287 276 259 258 267 297 345 190 203 241 271 267 215 177 181 196 207 207 214 215 207 200 192 183 174 167 166 164 162 166 166 166 167 158 148 149 149 147 146 138 134 125 118 125 130 133 133 130 131 127 121 131 150 207 264 43 90 83 40 16 13 14 22 7 355 354 351 349 353 355 354
193 216 218 218 229 232 231 244 238 224 249 258 86 317 286 278 272 268 264 269 301 298 248 198 204 257 265 182 156 178 202 218 215 217 216 209 199 187 177 167 163 166 167 166 167 167 165 160 156 156 159 157 153 148 141 138 131 124 125 131 139 142 138 136 133 138 156 153 128 103 78 66 45 32 35 28 16 15 4 356 356 352 353 355 353 354
162 212 229 225 231 234 234 242 239 230 247 251 142 229 252 253 257 254 255 268 272 272 278 230 196 248 273 229 198 189 213 241 229 221 219 210 198 181 168 160 161 166 169 169 169 168 164 158 159 165 167 166 159 150 146 142 136 134 138 145 151 150 145 141 145 156 162 148 128 97 58 40 36 38 38 26 13 7 3 2 -0 355 357 357 353 350
191 124 203 240 242 250 250 244 234 237 247 224 197 225 227 227 242 242 247 283 270 252 283 283 223 253 277 265 272 291 234 269 259 227 215 203 190 172 159 157 161 166 169 171 169 165 164 163 166 170 172 170 160 149 149 148 145 147 150 159 163 159 157 158 162 161 145 123 102 68 35 30 40 41 31 20 12 8 8 6 -0 355 356 357 352 350
230 204 207 227 233 244 251 238 219 224 229 225 232 238 232 221 233 248 229 262 271 253 268 323 259 254 264 274 299 7 151 231 288 348 62 131 157 155 154 159 162 166 169 171 166 159 162 164 164 168 167 161 154 148 153 155 154 155 159 168 170 167 172 173 160 141 133 131 63 50 39 36 38 38 34 26 19 15 13 5 356 350 352 354 351 352
227 229 227 214 211 220 233 232 212 207 212 224 235 235 234 232 225 238 236 225 251 256 207 246 262 254 261 274 289 291 220 216 355 46 52 75 126 143 153 159 162 166 169 170 164 156 159 161 156 158 157 153 153 153 158 162 160 161 166 174 175 171 170 160 138 130 144 161 83 67 52 37 30 34 36 31 26 20 13 5 -0 356 356 357 354 354
220 227 221 213 204 207 220 232 218 208 209 216 227 228 230 238 232 235 241 239 249 257 224 242 264 263 263 260 270 278 272 61 56 67 67 82 118 137 149 157 162 169 172 170 163 156 161 160 151 150 155 157 159 161 166 168 168 169 170 171 176 171 157 141 127 127 126 112 88 63 46 34 35 42 37 31 30 19 12 7 3 2 2 358 354 353
231 224 201 206 203 195 208 227 237 236 224 215 222 231 234 241 249 252 251 248 251 244 191 184 234 266 279 286 207 269 106 74 69 86 93 100 119 135 146 156 165 169 169 166 161 156 155 150 147 151 159 164 167 170 175 177 175 173 170 169 175 166 146 127 114 115 115 104 76 52 37 31 42 53 40 29 30 21 11 9 5 7 7 360 354 353
242 260 195 187 175 187 205 217 229 243 244 222 218 230 237 240 248 260 268 276 275 260 224 201 228 265 282 205 180 232 151 89 85 98 108 112 124 137 146 157 164 160 161 160 153 147 141 143 154 161 164 171 175 178 183 183 177 172 169 166 165 154 137 122 121 119 109 86 63 45 32 32 43 48 42 32 27 17 6 15 18 14 13 7 359 357
238 255 189 178 195 213 223 221 215 227 239 222 216 226 236 252 256 255 257 264 272 268 257 234 242 261 270 247 206 217 145 95 95 104 112 120 132 141 148 157 157 151 152 150 147 151 157 165 173 175 175 178 178 179 180 175 170 171 171 162 154 145 134 129 126 114 93 71 49 34 32 42 54 52 48 44 30 15 11 29 35 23 18 10 1 1
243 259 179 191 220 207 218 246 227 229 243 238 228 226 215 235 259 262 259 242 241 257 259 250 258 271 280 281 210 200 131 104 103 108 114 126 139 145 149 151 149 148 151 155 163 173 174 175 179 181 182 179 176 177 176 170 169 173 167 155 148 140 136 134 121 97 81 59 37 35 39 46 56 45 32 35 37 45 48 46 43 32 22 13 7 12
235 266 206 200 229 175 172 233 235 225 235 248 278 268 225 221 231 228 241 249 247 255 257 254 262 273 281 291 313 -0 104 110 112 113 120 131 139 144 146 145 146 151 158 167 174 173 168 173 179 181 180 174 171 175 176 171 169 168 160 152 147 142 139 130 107 90 76 49 35 40 45 39 36 36 39 44 56 72 69 57 47 38 27 23 22 26
216 256 242 163 172 169 173 212 231 209 206 231 265 265 230 240 252 231 228 246 253 259 262 261 259 267 306 346 13 48 93 116 121 118 122 129 135 141 145 148 152 158 165 169 165 158 160 170 177 177 176 172 171 174 172 165 162 161 159 152 145 141 133 117 100 87 63 43 37 38 46 48 48 57 72 77 77 77 70 58 51 43 34 35 37 36
212 234 250 141 138 214 212 197 229 226 191 204 227 232 220 220 255 258 242 241 253 263 263 265 264 267 26 28 50 75 92 111 117 118 124 130 136 142 149 156 159 162 167 161 152 157 164 169 171 167 167 169 171 170 164 161 162 159 153 145 139 134 121 109 103 91 68 59 58 59 65 65 62 68 83 90 86 77 68 59 56 49 38 36 38 43
217 219 246 231 188 227 213 159 232 263 244 213 207 215 222 215 221 240 237 230 240 260 267 270 275 299 59 33 52 82 94 106 114 120 126 133 139 144 152 159 161 164 164 151 149 162 166 168 168 161 163 167 167 165 162 163 163 155 147 142 136 128 117 113 117 115 105 92 86 86 79 71 68 68 78 90 90 79 70 65 61 55 48 40 37 48
220 229 246 250 242 258 270 123 213 280 279 261 237 223 223 218 222 233 239 236 232 246 267 272 273 350 65 46 66 89 97 104 114 122 128 134 140 145 151 154 157 161 156 147 151 160 163 167 165 159 164 168 164 164 165 163 158 150 146 142 135 129 126 130 137 133 118 107 100 92 82 77 79 80 79 82 86 85 79 72 64 55 51 51 50 58
197 232 237 244 252 260 264 149 186 241 252 251 247 240 239 235 232 242 258 269 253 243 249 261 262 102 80 76 95 100 99 104 116 126 129 132 137 145 150 149 150 151 148 148 154 159 163 169 167 164 166 165 163 165 164 159 155 150 144 140 136 137 140 143 143 132 120 117 110 101 91 87 91 90 83 78 81 85 82 75 69 58 51 53 58 64
179 218 225 234 239 220 202 181 186 195 211 227 230 222 229 240 242 251 267 272 264 257 251 261 272 78 98 122 118 112 108 111 121 127 129 132 137 145 148 148 148 147 147 149 151 157 164 164 163 164 164 165 166 165 161 159 157 152 146 142 142 146 147 143 138 132 127 125 122 115 105 96 92 88 83 82 82 82 82 79 74 66 56 56 59 62
191 211 203 227 245 215 200 203 183 186 198 208 221 214 217 233 236 239 249 240 244 257 253 260 270 101 116 136 126 119 117 119 124 128 130 133 139 144 147 149 149 147 148 148 147 154 160 158 156 158 164 171 170 164 161 160 158 154 148 147 150 152 149 144 140 135 129 126 125 119 106 95 90 88 84 84 85 84 85 83 77 71 65 61 60 59
208 224 211 238 262 281 332 7 27 317 230 197 203 211 216 230 232 233 244 247 253 259 250 262 261 135 136 140 134 133 132 129 132 134 135 138 142 145 149 152 150 147 148 149 148 151 156 157 156 157 166 172 169 165 162 160 159 157 152 150 155 155 150 147 144 136 131 131 128 119 108 100 95 93 91 89 89 90 89 89 84 78 71 62 61 61
218 220 213 231 251 282 321 335 -0 278 258 210 199 211 215 221 224 230 238 255 272 251 248 324 329 137 134 136 142 143 140 137 140 143 143 143 145 148 152 154 154 151 151 152 153 152 153 156 157 158 162 165 165 165 162 160 163 162 156 153 156 155 150 148 145 139 139 138 131 124 117 111 101 94 92 90 92 97 99 98 92 83 76 66 60 63
245 218 194 215 230 242 278 269 240 216 215 205 196 199 205 201 204 220 233 281 286 259 308 35 34 85 110 129 141 143 145 147 145 146 146 145 146 149 151 152 153 152 151 152 153 152 153 157 160 160 158 159 162 163 161 165 169 164 158 155 155 155 153 150 147 144 145 140 133 133 128 119 110 97 92 92 97 103 105 102 96 87 81 71 61 62
272 222 172 211 214 188 186 213 209 207 199 180 169 161 179 187 191 206 209 79 22 17 58 86 94 83 90 122 129 130 138 141 140 142 145 146 148 151 152 151 151 152 152 152 154 155 157 162 163 161 159 159 161 161 165 172 171 162 159 158 156 157 156 153 151 150 148 143 142 144 135 125 120 109 101 100 102 108 110 106 100 89 78 70 62 59
248 207 172 215 208 168 163 191 198 213 205 165 140 137 152 165 171 174 151 123 122 95 106 127 111 91 94 118 123 127 134 137 140 144 147 149 151 153 154 153 152 153 155 156 158 158 160 162 162 158 159 161 162 166 172 173 166 159 160 159 157 160 158 156 157 155 152 151 152 150 137 129 126 117 111 110 110 116 118 110 102 90 77 65 52 48
223 209 173 215 223 177 155 186 200 202 187 163 142 124 136 145 141 137 115 82 26 92 157 176 125 109 126 129 131 140 144 144 145 146 148 150 154 156 155 154 153 153 155 156 158 158 158 160 159 156 158 162 164 171 177 173 162 158 161 160 161 162 160 159 161 159 157 159 158 151 143 140 137 124 117 115 118 124 123 114 108 96 83 66 53 51
227 222 185 216 229 181 160 202 208 195 200 199 155 96 85 104 106 108 99 79 18 344 295 244 88 114 135 141 142 147 152 151 149 149 152 152 155 157 157 156 155 154 154 156 157 158 159 159 157 156 159 162 166 173 176 170 161 159 162 163 163 163 161 161 164 164 165 165 162 157 154 151 144 133 128 128 126 131 133 127 118 100 88 68 52 54
214 218 237 265 249 189 162 180 207 231 249 224 138 122 319 102 99 108 107 93 63 42 66 81 98 121 138 147 149 150 151 151 149 152 154 154 155 157 157 158 156 154 155 156 157 159 159 158 158 158 159 162 168 172 170 164 161 161 163 164 164 163 162 163 166 169 171 171 170 169 165 159 151 143 145 150 142 146 155 149 149 135 101 54 36 38
196 179 194 256 259 196 152 190 224 258 285 127 142 173 197 166 108 108 109 103 94 94 99 103 114 131 142 144 144 144 142 140 143 149 153 155 157 157 157 157 157 156 156 158 160 160 160 159 159 159 161 164 168 167 163 162 164 164 163 163 164 165 165 165 169 173 176 178 179 179 177 169 161 159 166 164 153 160 169 157 152 162 105 45 21 -0
239 178 183 238 263 202 189 212 240 289 124 144 155 161 167 173 165 154 145 135 126 114 115 121 125 133 138 138 138 139 136 133 134 140 148 155 159 159 159 159 159 158 158 160 160 159 160 161 160 162 166 165 163 162 161 164 166 163 162 164 165 166 165 166 170 173 176 182 184 183 181 175 169 171 176 168 158 162 166 152 151 191 302 4 346 325
261 223 186 223 278 263 238 220 196 186 185 184 177 173 182 188 180 198 209 138 140 140 132 133 136 139 138 138 140 141 138 134 130 136 149 157 160 161 160 161 161 158 159 163 161 157 160 163 164 166 167 162 159 161 163 165 165 162 162 164 166 166 164 162 165 168 171 176 178 177 177 175 173 176 175 169 167 170 171 174 192 241 291 328 329 320
252 236 183 193 238 260 271 262 228 213 215 216 154 150 170 178 161 197 244 159 155 156 145 142 144 145 145 146 148 147 146 143 140 148 155 159 160 158 156 160 162 159 159 164 164 160 160 163 166 167 164 159 160 163 164 163 163 162 162 164 166 164 161 159 158 158 161 167 168 168 171 173 173 177 179 175 173 172 175 185 202 232 264 293 326 330
226 224 204 214 220 217 237 263 265 264 259 254 139 132 139 138 140 179 239 202 161 154 150 148 148 151 153 154 156 159 164 173 165 157 160 161 159 157 156 160 162 159 161 165 164 160 159 163 165 164 160 159 162 163 163 162 162 163 163 164 165 162 159 159 156 153 156 161 163 166 171 175 178 182 186 181 177 179 185 194 207 226 251 299 326 328
214 216 220 233 238 220 213 244 260 270 322 237 166 139 135 140 169 212 247 207 155 156 156 153 154 158 158 157 162 174 198 242 165 159 161 160 156 156 160 161 160 160 163 163 160 157 160 164 164 161 160 161 162 162 162 161 161 164 163 162 162 160 159 160 157 157 161 162 163 168 173 178 181 183 185 184 185 192 200 209 226 248 276 301 307 305
224 220 223 232 242 230 214 252 260 227 133 180 168 143 136 154 197 229 271 112 147 153 155 156 157 157 157 160 171 184 164 94 135 149 156 157 153 155 159 159 158 160 162 161 158 159 163 164 162 160 160 162 161 161 162 161 161 163 161 160 160 160 162 163 161 163 166 165 167 170 173 177 178 177 182 187 192 199 209 227 246 268 286 292 296 298
239 231 228 236 250 243 215 247 253 224 128 169 160 136 148 200 209 187 356 66 136 144 147 153 153 151 156 163 164 138 109 116 132 144 151 155 153 153 155 156 157 159 159 160 161 162 162 161 160 159 159 161 162 162 162 162 162 162 160 158 159 161 163 165 165 167 169 170 174 175 175 176 174 175 186 194 198 207 226 249 258 269 281 289 299 306
259 248 239 236 269 268 238 235 243 242 125 161 161 143 167 259 32 93 102 97 119 134 139 143 146 151 157 154 135 120 120 127 137 144 148 152 152 152 153 155 157 157 158 161 164 162 159 158 159 160 159 161 163 163 163 163 162 161 159 157 158 159 159 159 161 165 168 172 175 176 177 178 176 181 195 203 209 221 238 256 262 271 282 291 301 308
133 280 259 209 224 257 251 239 264 334 108 143 156 117 65 65 66 97 121 115 124 135 135 137 143 149 149 139 131 131 131 134 142 147 148 149 149 151 153 155 157 158 160 163 163 161 160 159 159 159 160 162 164 165 164 164 163 161 159 158 159 157 153 154 159 162 166 171 174 175 178 182 185 193 205 214 223 233 245 258 266 274 284 291 300 307
55 12 303 258 214 272 303 35 44 85 123 121 67 40 69 98 94 101 132 133 136 137 135 139 141 139 138 135 134 135 134 138 146 149 149 149 151 153 154 156 159 161 162 162 162 162 161 160 159 160 160 163 166 166 165 166 166 163 161 163 163 159 155 158 162 164 170 175 177 179 183 189 196 205 215 223 233 244 253 263 271 276 282 289 295 301
76 67 280 268 167 109 61 55 73 122 124 99 68 67 86 105 108 120 134 132 131 131 134 139 138 137 139 139 136 135 137 142 147 149 151 153 154 156 157 158 161 162 160 162 163 163 161 161 161 161 162 164 168 167 165 168 170 167 166 169 168 164 163 166 170 174 179 182 185 188 193 199 208 218 228 235 244 255 261 264 267 272 278 286 291 297
113 217 255 231 180 175 108 73 93 120 116 95 82 83 86 93 103 119 127 124 122 126 132 136 137 139 142 142 138 136 139 145 148 150 152 154 155 157 158 158 160 161 161 163 164 163 163 164 163 164 164 166 169 170 168 169 171 171 174 175 173 172 173 175 178 182 186 190 196 200 204 210 217 226 235 239 246 261 270 274 277 280 286 291 294 302
189 256 254 176 137 86 73 80 94 107 106 93 88 91 95 100 105 111 116 117 117 122 128 132 137 140 142 142 140 137 140 148 152 152 153 155 156 157 158 158 160 162 163 165 165 164 165 166 165 166 167 169 171 173 172 172 171 175 179 180 178 182 185 183 185 189 191 196 201 201 207 218 223 228 236 235 235 253 267 278 285 291 297 300 306 318
183 218 272 99 106 90 92 111 121 120 117 109 97 94 100 108 111 112 114 117 119 122 126 129 134 139 140 140 140 140 141 149 156 156 155 157 157 158 159 159 160 163 165 166 166 166 167 167 167 168 171 172 173 173 175 175 174 176 182 184 185 191 194 192 195 201 201 204 206 202 205 216 219 226 240 241 236 256 275 292 293 295 306 318 338 357
184 158 114 118 134 115 138 155 154 135 129 132 120 111 114 120 122 121 120 123 125 127 128 128 127 130 136 138 143 145 144 148 157 159 157 158 159 160 160 160 161 163 165 166 167 168 168 169 169 171 173 175 176 175 177 180 180 178 182 189 194 199 201 200 206 213 213 212 213 211 212 219 224 228 237 238 233 257 289 310 317 326 352 9 23 47
214 167 135 142 156 168 164 166 167 131 128 137 132 126 129 133 134 132 130 131 133 134 134 135 132 130 133 137 146 150 147 148 156 159 157 158 160 159 160 161 161 163 165 167 168 169 169 170 172 173 175 178 180 180 180 183 186 184 186 194 202 204 206 208 212 218 220 219 221 224 223 228 237 235 235 243 246 255 282 300 311 329 351 17 32 40